Location: Dobrov�tov
(49.7882°N, 15.3279°E)
Time: 21:58:44
(UTC+00:00)

Daily predictions for brighter satellites

Satellite Brightness Start Highest point End
(mag) Time Altitude Azimuth Time Altitude Azimuth Time Altitude Azimuth
CZ-4B R/B 4.3 15:29:46 10° ESE 15:33:45 21° NE 15:37:41 10° N
H-2A R/B 4.1 15:31:03 10° S 15:34:34 42° W 15:38:05 10° NNW
SJ-7 4.4 15:31:12 10° SSE 15:35:21 72° ENE 15:39:35 10° N
ARGOS 4.4 15:34:50 10° E 15:38:28 19° NE 15:42:05 10° NNE
USA 307 3.2 15:35:03 10° SW 15:39:16 62° SSE 15:43:31 10° ENE
Cosmos 1766 Rocket 3.5 15:35:46 10° N 15:40:08 71° ENE 15:44:29 10° SSE
SMAP 3.4 15:36:14 10° SE 15:40:36 42° ENE 15:45:00 10° N
H-2A R/B 2.9 15:36:24 10° ESE 15:40:40 26° ENE 15:44:51 10° N
Cosmos 1862 3.3 15:36:54 10° N 15:40:52 68° ENE 15:44:51 10° SSE
Meteor PRIRODA 3.6 15:37:19 10° SSE 15:40:55 64° ENE 15:44:32 10° N
Cosmos 1939 Rocket 3.3 15:38:25 10° SE 15:42:19 42° ENE 15:46:13 10° N
ERBS 3.4 15:41:03 10° SSW 15:43:54 29° SE 15:46:45 10° ENE
Cosmos 1606 3.3 15:41:22 10° SSE 15:44:46 34° E 15:48:14 10° NNE
FengYun 1-2 T 4.3 15:39:45 10° SSE 15:45:15 61° ENE 15:50:44 10° N
Cosmos 44 3.4 15:42:52 10° NNW 15:47:40 49° NE 15:52:08 10° ESE
SL-16 R/B 4.5 15:43:28 10° N 15:48:09 23° NW 15:52:51 10° WSW
ATLAS CENTAUR R/B 1.5 15:44:14 10° SW 15:48:21 90° SE 15:52:51 10° NE
Cosmos 2221 3.1 15:46:16 10° SSE 15:50:10 36° E 15:54:07 10° NNE
Cosmos 2098 Rocket 4.4 15:44:37 10° N 15:50:58 83° W 15:58:13 10° S
COSMO-SKYMED 1 4.3 15:52:10 10° ENE 15:54:25 14° E 15:56:40 10° ESE
CZ-2C R/B 4.0 15:52:54 10° NE 15:56:24 18° E 15:59:51 10° SE
NOAA 12 4.1 15:52:22 10° SSE 15:57:43 87° ENE 16:03:04 10° NNW
CZ-4C R/B 3.6 15:52:17 10° NW 15:58:01 31° NNE 16:04:35 11° E
USA 308 2.9 15:57:13 10° WSW 16:01:28 81° SSE 16:05:10 14° ENE
Okean O Rocket 2.7 16:01:16 10° ESE 16:04:44 23° ENE 16:08:14 10° N
ISS -3.6 16:06:05 10° W 16:09:28 64° N 16:11:56 17° ENE
Cosmos 1464 Rocket 4.0 16:06:21 10° S 16:12:40 74° E 16:19:03 10° NNE
YAOGAN 1 4.2 16:13:13 15° NE 16:13:13 15° NE 16:15:31 10° NNE
NOAA 6 4.0 16:08:58 10° SSE 16:14:07 83° ENE 16:19:18 10° NNW
Cosmos 2322 Rocket 4.1 16:12:19 10° N 16:14:09 11° NNE 16:15:47 10° NE
Cosmos 1461 3.7 16:10:45 10° WSW 16:14:49 47° NW 16:18:38 11° NNE
Cosmos 2369 4.5 16:09:51 10° NNW 16:14:54 31° NE 16:19:57 10° ESE
Cosmos 1408 Rocket 3.5 16:14:39 10° N 16:19:01 84° E 16:23:23 10° S
Cosmos 2084 3.8 16:15:05 10° NW 16:19:10 45° NE 16:23:06 12° ESE
Cosmos 1271 Rocket 3.4 16:16:52 10° SSW 16:20:44 57° WNW 16:24:39 10° N
NOSS 2-1 (E) 3.0 16:18:20 10° SW 16:21:33 67° NW 16:24:04 17° NE
GEOS 3 Rocket 3.8 16:17:23 10° ESE 16:22:27 52° NE 16:27:29 10° NW
CZ-4 R/B 3.4 16:24:22 13° NNE 16:24:22 13° NNE 16:25:16 10° NNE
CZ-4B R/B 4.1 16:18:58 10° S 16:23:00 47° W 16:26:51 10° NNW
Cosmos 1743 Rocket 3.6 16:19:08 10° N 16:23:23 52° ENE 16:27:36 10° SSE
Cosmos 1697 Rocket 3.0 16:18:13 10° NNW 16:23:37 45° NE 16:28:59 10° SE
Cosmos 1980 Rocket 3.0 16:20:22 10° NNW 16:25:19 29° NE 16:28:49 16° E
Cosmos 1937 Rocket 4.0 16:20:45 10° NNW 16:25:42 37° NE 16:30:38 10° SE
Nadezhda 4 Rocket 4.0 16:20:22 10° N 16:26:43 83° E 16:33:03 10° S
Cosmos 1782 4.1 16:24:03 10° SE 16:26:58 20° E 16:26:58 20° E
USA 267 3.4 16:21:33 15° ENE 16:27:09 73° NNW 16:33:40 10° WSW
Lacrosse 5 4.1 16:23:05 10° WNW 16:27:21 27° SW 16:31:35 10° S
Cosmos 1763 Rocket 4.1 16:23:31 10° SSE 16:28:04 35° ESE 16:31:14 18° NE
deb Kosmos-1763 3.8 16:24:44 10° SSW 16:28:08 88° ESE 16:30:54 15° NNE
SL-16 R/B 3.8 16:25:40 10° N 16:28:49 15° NNE 16:29:47 14° NE
Cosmos 1656 3.6 16:24:23 10° NNW 16:29:57 85° ENE 16:35:33 10° SSE
USA 305 3.0 16:26:37 10° WSW 16:30:51 71° NNW 16:33:22 23° ENE
CZ-2C R/B 4.2 16:26:30 10° S 16:31:16 44° W 16:35:54 10° NNW
CZ-4B DEB 4.2 16:27:54 10° SSE 16:33:26 88° WSW 16:38:59 10° NNW
Cosmos 1340 Rocket 2.7 16:31:57 10° N 16:36:02 84° ENE 16:40:07 10° SSE
Cosmos 1092 Rocket 4.0 16:30:41 10° N 16:37:00 62° ENE 16:43:16 10° SSE
Cosmos 2082 Rocket 3.7 16:33:33 10° SE 16:36:39 17° ESE 16:36:39 17° ESE
Cosmos 1809 Rocket 4.5 16:32:06 10° N 16:38:08 56° ENE 16:44:06 10° SSE
USA 229 DEB 3.9 16:31:23 10° NW 16:38:39 73° NE 16:46:23 10° SE
USA 229 3.9 16:31:29 10° NW 16:38:44 73° NE 16:46:29 10° SE
Cosmos 990 Rocket 3.9 16:36:05 10° NNW 16:41:20 80° ENE 16:46:31 10° SSE
COSMOS 2406 4.0 16:37:05 10° SSE 16:42:00 30° ESE 16:43:56 24° ENE
SKYMED 2 4.1 16:40:36 21° NE 16:42:56 38° E 16:46:58 10° SSE
H-2A R/B 4.5 16:45:36 12° NNE 16:45:36 12° NNE 16:46:04 10° NNE
Lacrosse 5 rocket 2.4 16:40:46 10° WNW 16:44:06 28° N 16:45:17 24° NNE
Cosmos 1602 3.7 16:42:36 10° N 16:46:23 54° ENE 16:50:10 10° SSE
USA 276 2.3 16:43:39 10° W 16:46:45 66° SSW 16:47:51 35° SE
ATLAS 2AS CENTAUR R/B 4.0 16:39:58 10° W 16:46:59 35° NNW 16:52:29 15° NE
ATLAS CENTAUR R/B 3.2 16:39:26 10° SSW 16:48:47 48° SE 16:50:57 29° E
PAYLOAD B 4.3 16:43:27 10° SSE 16:49:03 85° WSW 16:54:43 10° NNW
Cosmos 1933 3.5 16:45:14 10° S 16:49:09 50° E 16:51:18 24° NNE
Cosmos 1428 Rocket 4.4 16:43:31 10° N 16:49:38 66° ENE 16:55:43 10° SSE
SJ 16-02 3.6 16:46:07 10° NW 16:49:50 28° W 16:53:33 10° SSW
Cosmos 372 Rocket 4.4 16:47:58 10° NNW 16:52:53 40° ENE 16:55:11 26° ESE
Cosmos 1500 Rocket 3.7 16:49:22 10° NNW 16:53:51 75° W 16:58:15 10° S
Cosmos 1627 Rocket 4.4 16:48:30 10° N 16:54:44 70° ENE 17:00:51 10° SSE
Cosmos 2034 Rocket 4.1 16:50:00 10° SSW 16:56:10 79° W 17:02:21 10° N
CZ-2D R/B 3.9 16:57:46 10° S 17:01:34 57° W 17:05:22 10° NNW
NOSS 3-1 (A) 4.1 16:54:41 10° NW 17:02:04 86° SW 17:10:46 10° SE
USA 306 3.2 16:58:35 10° W 17:02:47 57° NNW 17:04:00 40° NE
NOSS 2-1 (C) 4.5 17:00:06 10° W 17:02:57 28° NNW 17:04:09 22° N
Meteor 1-20 Rocket 4.4 16:58:13 10° NNW 17:04:01 77° W 17:09:51 10° S
Cosmos 1805 Rocket 3.4 17:00:21 10° N 17:04:43 86° E 17:09:03 10° S
Cosmos 1833 Rocket 2.7 17:04:06 10° S 17:09:35 58° ESE 17:11:51 34° NE
Cosmos 2360 4.1 17:04:27 10° NNW 17:10:15 84° ENE 17:15:59 10° SSE
Cosmos 2279 Rocket 4.2 17:05:44 10° SSE 17:11:36 46° E 17:16:36 14° NNE
NOSS 2-2 (D) 4.2 17:07:53 10° NW 17:12:43 61° NE 17:15:23 34° ESE
CZ-4B R/B 3.3 17:08:19 10° S 17:13:47 76° WSW 17:19:11 10° NNW
Meteor 1-14 Rocket 4.3 17:08:08 10° N 17:13:48 56° ENE 17:19:33 10° SSE
NOSS 2-2 (E) 4.2 17:09:10 10° NW 17:14:12 72° NE 17:18:12 25° SE
Cosmos 2219 Rocket 4.4 17:14:00 10° N 17:14:34 10° NNE 17:14:34 10° NNE
Sich 1 2.9 17:11:37 10° N 17:15:56 88° E 17:20:13 10° S
ARGOS 3.1 17:12:37 10° SSE 17:18:03 87° WSW 17:23:31 10° NNW
USA 307 3.2 17:15:04 10° W 17:19:17 54° NNW 17:19:51 49° NNE
ERBS 3.0 17:16:37 10° W 17:19:27 44° NW 17:19:27 44° NW
H-2A R/B 2.8 17:14:43 10° S 17:19:51 53° W 17:24:51 10° NNW
Cosmos 1898 Rocket 3.8 17:14:45 10° NNW 17:20:01 69° WSW 17:25:11 10° SSE
MOS 1-B Rocket 3.9 17:14:26 10° NNE 17:20:10 86° WNW 17:26:28 10° SSW
Cosmos 1634 Rocket 3.9 17:15:21 10° S 17:21:39 81° E 17:28:02 10° N
SL-24 R/B - RUBIN 2 3.6 17:18:45 10° NW 17:23:11 56° NE 17:23:11 56° NE
Cosmos 1655 Rocket 4.3 17:18:54 10° N 17:24:56 42° ENE 17:24:56 42° ENE
COSMOS 2455 3.3 17:20:26 10° S 17:25:52 40° ESE 17:25:52 40° ESE
Landsat 5 3.3 17:27:18 76° ESE 17:27:18 76° ESE 17:31:19 10° S
ATLAS CENTAUR R/B 3.4 17:24:26 10° W 17:27:52 23° NNW 17:29:27 19° N
Cosmos 468 Rocket 4.0 17:22:48 10° SSW 17:27:57 82° WNW 17:30:21 33° NNE
SL-19 R/B 4.5 17:23:32 11° NNE 17:29:17 87° WNW 17:35:42 10° SSW
COSMO-SKYMED 1 2.7 17:29:13 33° N 17:31:07 75° WNW 17:35:26 10° SSW
Meteor 2-16 Rocket 4.3 17:25:35 10° N 17:31:42 75° ENE 17:37:49 10° SSE
Cosmos 2026 Rocket 4.3 17:28:01 10° NNW 17:34:09 66° W 17:40:09 10° S
SL-08 RB Rocket 3.7 17:31:24 10° SSE 17:36:03 82° WSW 17:40:43 10° NNW
Cosmos 540 Rocket 3.3 17:31:30 10° SSW 17:36:35 76° ESE 17:37:03 70° ENE
CZ-2C R/B 2.7 17:32:51 15° N 17:37:18 74° WNW 17:42:28 10° SSW
Cosmos 1500 3.7 17:36:33 10° NNW 17:44:46 - S 17:40:06 55° W
Okean O Rocket 2.5 17:36:29 10° S 17:40:48 50° W 17:45:10 10° NNW
USA 308 3.6 17:37:28 10° W 17:41:12 47° NNW 17:41:12 47° NNW
Cosmos 2360 Rocket 4.0 17:39:13 10° N 17:41:19 17° N 17:41:19 17° N
ISS -1.8 17:43:04 10° WNW 17:44:55 30° WNW 17:44:55 30° WNW
CZ-4C R/B 2.8 17:40:46 10° NW 17:47:43 70° NE 17:49:48 51° ESE
YAOGAN 1 3.7 17:50:22 36° NNW 17:50:22 36° NNW 17:52:59 10° NNW
Cosmos 2180 Rocket 4.4 17:42:27 10° S 17:48:44 66° E 17:49:36 59° NE
Meteor 1-5 Rocket 4.3 17:48:58 10° NNW 17:54:59 83° W 18:00:56 10° S
CZ-4 R/B 3.7 18:00:22 17° NNW 18:00:22 17° NNW 18:01:23 10° NNW
Cosmos 2369 4.1 17:53:50 10° NW 17:59:30 61° WSW 18:02:24 29° S
Cosmos 2322 Rocket 3.7 17:55:00 10° NNW 17:57:35 23° N 17:57:35 23° N
Cosmos 1782 4.2 17:59:17 10° SW 18:02:35 38° W 18:02:35 38° W
Cosmos 1697 Rocket 4.1 18:02:24 10° NW 18:07:29 36° WSW 18:12:34 10° S
USA 267 3.7 18:08:54 46° NNE 18:09:46 48° N 18:15:59 10° WNW
Cosmos 1980 Rocket 2.5 18:04:08 10° NW 18:09:46 64° WSW 18:10:40 55° SSW
Cosmos 841 Rocket 3.9 18:06:04 10° SSW 18:10:09 55° SW 18:10:09 55° SW
SL-16 R/B 3.6 18:08:52 10° NNW 18:11:40 28° N 18:11:40 28° N
Cosmos 2333 Rocket 4.4 18:10:16 10° N 18:11:35 14° N 18:11:35 14° N
Cosmos 2082 Rocket 2.9 18:14:40 10° SSW 18:18:33 46° SSW 18:18:33 46° SSW
Lacrosse 5 rocket 3.9 18:20:01 10° NW 18:20:53 16° NW 18:20:53 16° NW
Cosmos 2278 4.2 18:19:55 10° NNW 18:24:48 58° WNW 18:24:48 58° WNW
COSMOS 2406 3.8 18:20:23 10° SW 18:26:02 55° NW 18:26:02 55° NW
ATLAS 2AS CENTAUR R/B 4.1 18:33:43 10° NW 18:39:54 28° N 18:39:54 28° N
Cosmos 1833 Rocket 4.2 18:48:55 10° WSW 18:53:35 31° NW 18:53:35 31° NW
COSMOS 2455 4.5 19:06:02 10° WSW 19:09:04 29° WSW 19:09:04 29° WSW
CZ-4C R/B 4.1 19:29:30 10° NW 19:35:02 37° W 19:35:02 37° W
